www.pogodaiklimat.ru

Погода и климат >> Архив погоды >> Россия >> Якутия >> Усть-Нера


ПОГОДА в Усть-Нере

  • Прогноз погоды в Усть-Нере
  • Монитор погоды в Усть-Нере
  • Климат города

АРХИВ ПОГОДЫ в Усть-Нере

Время (UTC), дата Ветер
(напр.,м/с)
 
Видим.   Явления Облачность Т
(С)
Тd
(С)
f
(%)
Тe
(С)
Тes
(С)
Комфортность P
(гПа)
Po
(гПа)
Тmin
(С)
Tmax
(С)
R
(мм)
R24
(мм)
S
(см)
18 14.11 штиль 0 20 км 6/0
[Ac trans Ci fib]
-31.1 -33.1 82 -31 -31 опасность
обморожения
1036.8 963.9
21 14.11 штиль 0 20 км 8/0
[Ac trans Ci fib]
-29.6 -32.0 80 -30 -30 1036.5 964.0 -32.0 14
00 15.11 штиль 0 50 км 8/0
[Ac trans Ci fib]
-31.5 -33.9 79 -32 -32 опасность
обморожения
1036.9 963.8
03 15.11 штиль 0 50 км 9/0
[Ci fib]
-28.9 -32.1 74 -29 -29 1034.5 962.3
06 15.11 З 1 50 км 9/0
[Ac trans Ci fib]
-28.3 -31.3 75 -32 -32 опасность
обморожения
1033.2 961.3
09 15.11 штиль 0 20 км 6/0
[Ci fib]
-29.6 -32.0 80 -30 -30 1033.1 960.8 -28.2
12 15.11 В 1 20 км 6/0
[Ci fib]
-30.4 -32.8 79 -35 -35 опасность
обморожения
1032.6 960.1
15 15.11 штиль 0 20 км 8/0
[Ac trans Ci fib]
-29.6 -32.0 80 -30 -30 1031.2 959.1
18 15.11 штиль 0 20 км 8/0
[Ci fib]
-31.8 -34.1 80 -32 -32 опасность
обморожения
1031.6 958.7
21 15.11 штиль 0 20 км 4/0
[Ci fib]
-33.1 -35.4 80 -33 -33 опасность
обморожения
1031.7 958.5 -33.2 14
00 16.11 штиль 0 50 км 6/0
[As trans Ci fib]
-32.8 -35.1 80 -33 -33 опасность
обморожения
1031.0 957.9
03 16.11 штиль 0 50 км 8/0
[As trans Ci fib]
-28.5 -31.0 79 -29 -28 1028.8 957.2
06 16.11 штиль 0 20 км 6/0
[Ci fib]
-30.7 -33.0 80 -31 -31 опасность
обморожения
1029.5 957.2
09 16.11 штиль 0 20 км 6/0
[Ci fib]
-31.7 -34.1 79 -32 -32 опасность
обморожения
1030.0 957.4 -28.0
12 16.11 штиль 0 20 км 8/0
[Ci fib]
-31.5 -33.9 79 -32 -32 опасность
обморожения
1030.1 957.5
15 16.11 штиль 0 20 км 4/0
[Ci fib]
-33.5 -35.9 79 -34 -34 опасность
обморожения
1030.6 957.4
18 16.11 штиль 0 20 км 3/0
[Ci fib]
-34.6 -36.8 80 -35 -35 опасность
обморожения
1031.4 957.8
21 16.11 штиль 0 20 км 3/0
[Ci fib]
-34.7 -37.7 74 -35 -35 опасность
обморожения
1031.3 957.7 -34.8 14
00 17.11 штиль 0 50 км 5/0
[Ci fib]
-34.5 -37.4 75 -35 -35 опасность
обморожения
1031.5 957.9
03 17.11 штиль 0 50 км 3/0
[Ci fib]
-32.1 -35.0 75 -32 -32 опасность
обморожения
1030.2 957.3
06 17.11 штиль 0 50 км 8/0
[As trans Ci fib]
-32.9 -35.8 75 -33 -33 опасность
обморожения
1030.3 957.3
09 17.11 штиль 0 20 км 4/0
[Ci fib]
-34.7 -37.7 74 -35 -35 опасность
обморожения
1031.4 957.8 -31.6
12 17.11 штиль 0 20 км 8/0
[Ci fib]
-33.0 -36.0 74 -33 -33 опасность
обморожения
1031.3 958.2
15 17.11 СВ 1 20 км 10/0
[Ci fib]
-32.8 -35.8 74 -37 -37 опасность
обморожения
1031.1 958.0
18 17.11 СВ 1 10 км слабый снег 10/0
[Cs]
-32.1 -35.0 75 -36 -36 опасность
обморожения
1030.8 958.0
21 17.11 штиль 0 10 км слабый снег 10/0
[As op]
-31.9 -34.4 78 -32 -32 опасность
обморожения
1030.8 958.0 -34.8 0.2 14
00 18.11 СВ 1 20 км слабый снег 10/0
[As op]
-31.5 -33.9 79 -36 -36 опасность
обморожения
1030.6 957.7
03 18.11 В 1 20 км слабый снег 10/0
[As trans Cs]
-30.8 -33.2 79 -35 -35 опасность
обморожения
1029.6 957.2
06 18.11 штиль 0 50 км слабый снег ?/? -30.9 -33.2 80 -31 -31 опасность
обморожения
1029.1 956.7
09 18.11 штиль 0 20 км слабый снег 10/0
[As trans Cs]
-30.9 -33.2 80 -31 -31 опасность
обморожения
1029.4 957.0 -30.3 0.5
12 18.11 СВ 1 20 км слабый снег 10/0
[Cs]
-32.2 -34.6 79 -37 -37 опасность
обморожения
1029.7 957.0
15 18.11 СВ 1 20 км слабый снег 10/0
[Cs]
-32.8 -35.1 80 -37 -37 опасность
обморожения
1029.4 956.4
18 18.11 СВ 1 20 км слабый снег 10/0
[Cs]
-33.2 -35.6 79 -38 -38 опасность
обморожения
1029.4 956.4
21 18.11 штиль 0 10 км слабый снег 10/0
[Cs]
-33.6 -35.9 80 -34 -34 опасность
обморожения
1029.8 956.6 -33.7 0.4 14
00 19.11 штиль 0 10 км слабый снег 10/5 1000 м
[Sc Cs]
-33.6 -36.6 74 -34 -34 опасность
обморожения
1029.2 956.1 -34.1
03 19.11 СВ 1 10 км слабый снег 10/10 1320 м
[Sc]
-32.4 -35.5 74 -37 -37 опасность
обморожения
1028.4 955.6
06 19.11 штиль 0 10 км слабый снег 10/10 1300 м
[Sc]
-32.4 -35.5 74 -32 -32 опасность
обморожения
1028.3 955.5
09 19.11 СВ 1 10 км слабый снег 10/8 1110 м
[Sc As trans]
-33.4 -35.6 80 -38 -38 опасность
обморожения
1028.3 955.3 -32.3 0.2
12 19.11 СВ 1 10 км слабый снег 10/8 1080 м
[Sc As trans]
-34.5 -36.8 79 -39 -39 опасность
обморожения
1028.3 955.0
15 19.11 штиль 0 10 км слабый снег 10/6 1080 м
[Sc As trans]
-35.1 -37.4 79 -35 -35 опасность
обморожения
1028.2 954.7
18 19.11 штиль 0 10 км слабый снег 10/6 1110 м
[Sc As trans]
-36.2 -38.4 80 -36 -36 опасность
обморожения
1027.6 953.8
21 19.11 ЮЗ 1 10 км слабый снег 10/4 1000 м
[Sc Cs]
-38.0 -40.9 74 -43 -43 опасность
обморожения
1027.7 953.4 -38.1 0.2 14
00 20.11 ЮЗ 2 20 км {снег} 10/5 1000 м
[Sc Cs]
-38.8 -41.8 73 -48 -48 опасность
обморожения
1027.7 953.1 -38.8
03 20.11 штиль 0 50 км 10/4 1000 м
[Sc Ci fib]
-38.3 -40.9 76 -38 -38 опасность
обморожения
1026.5 952.1
06 20.11 З 1 20 км 10/5 1500 м
[Sc Ci fib]
-37.5 -40.5 73 -42 -42 опасность
обморожения
1025.8 951.7
09 20.11 штиль 0 20 км 10/5 1500 м
[Sc Cs]
-36.1 -39.0 74 -36 -36 опасность
обморожения
1024.8 951.3 -35.9 0.0
12 20.11 штиль 0 20 км 8/0
[Ac trans Ci fib]
-36.6 -39.4 75 -37 -37 опасность
обморожения
1024.8 951.1
15 20.11 штиль 0 10 км слабый снег 10/0
[As op]
-35.3 -37.7 79 -35 -35 опасность
обморожения
1023.5 950.4
18 20.11 штиль 0 20 км {снег} 4/0
[Ci fib]
-38.1 -40.3 80 -38 -38 опасность
обморожения
1024.5 950.4
21 20.11 штиль 0 20 км 4/0
[Ci fib]
-39.9 -42.2 78 -40 -40 опасность
обморожения
1025.4 950.6 -40.2 0.2 14
00 21.11 штиль 0 50 км 10/0
[As op Ci fib]
-39.0 -41.8 75 -39 -39 опасность
обморожения
1025.5 951.0
03 21.11 З 1 50 км 10/0
[As op Ci fib]
-37.3 -40.1 75 -42 -42 опасность
обморожения
1025.9 951.8
06 21.11 СВ 1 50 км 9/0
[As op Ci fib]
-37.5 -40.5 73 -42 -42 опасность
обморожения
1026.5 952.4
09 21.11 штиль 0 20 км 3/0
[As trans]
-38.7 -41.4 75 -39 -39 опасность
обморожения
1028.7 954.1 -37.3
12 21.11 штиль 0 20 км ясно -39.7 -42.3 76 -40 -40 опасность
обморожения
1029.2 954.3
15 21.11 штиль 0 20 км ясно -40.3 -43.3 73 -40 -40 опасность
обморожения
1030.4 955.1

 

Местоположение метеостанции Усть-Нера (Якутия, Россия): широта 64.53 долгота 143.10 высота над уровнем моря 519 м.

В архиве по умолчанию представлена погода в Усть-Нере за последнюю неделю. Архивные данные за месяц целиком и за предыдущие месяцы, начиная с января 2011 года, Вы можете получить, выбрав интересующий диапазон дат из раскрывающегося списка и нажав кнопку "Ввод!".


*Определитесь, кто Вы:
робот инопланетянин человек

Внимание! Время в таблицах - всемирное. Для получения местного времени необходимо прибавить поправку, которая в Усть-Нере равна 10 ч.

Смотрите также архив погоды в соседних городах и на ближайших метеорологических станциях:

Погода в Юртах (Якутия, Россия) (82 км)
Погода в Оймяконе (Якутия, Россия) (142 км)
Погода в Делянкире (Якутия, Россия) (144 км)
Погода в Агаякане (Якутия, Россия) (150 км)
Погода в Усть-Моме (Якутия, Россия) (214 км)
Погода в Восточной (Якутия, Россия) (224 км)
Погода в Сусумане (Магаданская область, Россия) (314 км)
Погода в Иэме (Якутия, Россия) (355 км)
Погода в Томпо (Якутия, Россия) (359 км)
Погода в Теплом Ключе (Якутия, Россия) (367 км)

Пояснения к столбцам:

Ветер - указаны скорость ветра в м/с - средняя за 10 мин, порывы в срок и между сроками (в фигурных скобках) и направление, откуда дует ветер: С - северный, СВ - северо-восточный, В - восточный, ЮВ - юго-восточный, Ю - южный, ЮЗ - юго-западный, З - западный, СЗ - северо-западный.
Видимость - горизонтальная дальность видимости в метрах или километрах. При видимости от 1 до 10 км при отсутствии осадков обычно наблюдается дымка, при ухудшении видимости до 1 км и менее - туман. В сухую погоду видимость может ухудшаться дымом, пылью или мглою.
Явления - указаны атмосферные явления, наблюдавшиеся в срок или в последний час перед сроком; фигурными скобками обозначены явления, наблюдавшиеся между сроками (за 1-3 часа до срока); квадратными скобками обозначены град или гололедные отложения с указанием их диаметра в мм.
Облачность - указаны через наклонную черту общая и нижняя облачность в баллах и высота нижней границы облаков в метрах; квадратными скобками обозначены формы облаков: Ci - перистые, Cs - перисто-слоистые, Cc - перисто-кучевые, Ac - высококучевые, As - высокослоистые, Sc - слоисто-кучевые, Ns - слоисто-дождевые, Cu - кучевые, Cb - кучево-дождевые. Подробнее классификацию облаков см. в Атласе облаков (PDF).
T - Температура воздуха - температура, измеренная на высоте 2 м над землей.
Td - Температура точки росы - температура, при понижении до которой содержащийся в воздухе водяной пар достигнет насыщения.
f - Относительная влажность воздуха - влажноcть воздуха, измеренная на высоте 2 м над землей.
Te - Эффективная температура - температура, которую ощущает одетый по сезону человек в тени. Характеристика душности погоды. При расчете учитывается влияние влажности воздуха и скорости ветра на теплоощущения человека.
Tes - Эффективная температура на солнце - температура, которую ощущает человек, с поправкой на солнечный нагрев. Характеристика знойности погоды. Зависит от высоты солнца над горизонтом, облачности и скорости ветра. Ночью, в пасмурную погоду, а также при ветре 12 м/с и более поправка равна нулю.
P - Атмосферное давление - приведенное к уровню моря атмосферное давление.
Po - Атмосферное давление - измеренное на уровне метеостанции атмосферное давление.
Tmin - Минимальная температура - минимум температуры воздуха на высоте 2 м над землей.
Tmax - Максимальная температура - максимум температуры воздуха на высоте 2 м над землей.
R - Количество осадков - Количество выпавших осадков за период времени, мм. При наведении курсора мыши на число - период времени, за который выпало указанное количество осадков.
R24 - Количество осадков - Количество выпавших осадков за 24 часа, мм.
S - Снежный покров - Высота снежного покрова, см. При наведении курсора мыши на число - состояние снежного покрова и степень покрытия местности в баллах.